Printer-friendly version

IAU Minor Planet Center

Minor Planet Center

MPEC 2004-B14 : 2004 BE11

The following Minor Planet Electronic Circular may be linked-to from your own Web pages, but must not otherwise be redistributed electronically.


Read MPEC 2004-B13 Read MPEC 2004-B15


M.P.E.C. 2004-B14                                Issued 2004 Jan. 19, 11:15 UT

     The Minor Planet Electronic Circulars contain information on unusual
         minor planets and routine data on comets.  They are published
   on behalf of Commission 20 of the International Astronomical Union by the
          Minor Planet Center, Smithsonian Astrophysical Observatory,
                          Cambridge, MA 02138, U.S.A.

         Supported in part by the Steven and Michele Kirsch Foundation
             Prepared using the Tamkin Foundation Computer Network

                              MPC@CFA.HARVARD.EDU
          URL http://cfa-www.harvard.edu/iau/mpc.html  ISSN 1523-6714

                                   2004 BE11

Observations:
     K04B11E* C2004 01 18.15242 03 46 16.97 -10 47 34.2          19.5 V EB014703
     K04B11E  C2004 01 18.16612 03 46 16.89 -10 46 56.6          18.8 V EB014703
     K04B11E  C2004 01 18.17985 03 46 16.89 -10 46 22.3          19.5 V EB014703
     K04B11E  C2004 01 18.19355 03 46 16.77 -10 45 45.8          18.9 V EB014703
     K04B11E  C2004 01 18.26619 03 46 16.47 -10 42 36.6          18.9 V EB014703
     K04B11E  C2004 01 18.26770 03 46 16.36 -10 42 31.7          19.4 V EB014703
     K04B11E  C2004 01 18.26918 03 46 16.33 -10 42 25.3          19.4 V EB014703
     K04B11E  C2004 01 18.27065 03 46 16.31 -10 42 21.7          19.3 V EB014703
     K04B11E  C2004 01 19.11468 03 46 21.88 -10 05 29.0          20.3 R EB014448
     K04B11E  C2004 01 19.13130 03 46 21.83 -10 04 44.0          20.1 R EB014448
     K04B11E  C2004 01 19.13780 03 46 21.61 -10 04 30.0          19.7 R EB014649
     K04B11E  C2004 01 19.13958 03 46 21.61 -10 04 25.0          19.7 R EB014649
     K04B11E  C2004 01 19.14078 03 46 21.90 -10 04 20.7          19.8 R EB014448
     K04B11E  C2004 01 19.14137 03 46 21.63 -10 04 20.3          19.9 R EB014649
     K04B11E  C2004 01 19.14315 03 46 21.62 -10 04 15.4          19.9 R EB014649
     K04B11E  C2004 01 19.21051 03 46 21.85 -10 01 15.7          19.3 R EB014651
     K04B11E  C2004 01 19.21235 03 46 21.84 -10 01 10.6          19.2 R EB014651
     K04B11E  C2004 01 19.21361 03 46 21.87 -10 01 07.2          19.1 R EB014651
     K04B11E  C2004 01 19.22390 03 46 21.86 -10 00 39.9          19.1 R EB014G90
     K04B11E  C2004 01 19.23062 03 46 21.89 -10 00 22.9          18.5 R EB014G90
     K04B11E  C2004 01 19.23758 03 46 21.87 -10 00 04.1          18.9 R EB014G90

Observer details:
448 Desert Moon Observatory.  Observer B. L. Stevens.  0.3-m
    Schmidt-Cassegrain + CCD.
649 Powell Observatory, Louisburg.  Observer R. Fredrick.  0.75-m Newtonian
    + CCD.
651 Grasslands Observatory, Tucson.  Observer J. E. McGaha.  0.62-m f/5.1
    Newtonian + CCD.
703 Catalina Sky Survey.  Observers S. Larson, E. Beshore, E. Christensen,
    R. Hill, S. Kolar, D. McLean.  0.68-m f/1.8 Schmidt + CCD.
G90 Three Buttes Observatory, Tucson.  Observer G. R. Jones.  0.35-m
    Schmidt-Cassegrain + CCD.

Orbital elements:
2004 BE11
Epoch 2004 Jan. 16.0 TT = JDT 2453020.5                 MPC
M 282.64222              (2000.0)            P               Q
n   0.78078260     Peri.   52.76688     -0.95803280     +0.24252522
a   1.1680174      Node   140.60244     -0.27179479     -0.93794795
e   0.1306495      Incl.   13.93257     +0.09110846     -0.24786118
P   1.26           H   19.7           G   0.15
From 21 observations 2004 Jan. 18-19.

Ephemeris:
2004 BE11                a,e,i = 1.17, 0.13, 14                  q = 1.0154
Date    TT    R. A. (2000) Decl.     Delta      r     Elong.  Phase     V
2004 01 16    03 46.32   -12 20.1    0.340    1.154   111.8    52.3    19.6
2004 01 26    03 48.64   -04 56.1    0.346    1.133   106.7    56.3    19.7
2004 02 05    03 56.91   +02 46.5    0.354    1.113   101.6    60.2    19.8
2004 02 15    04 10.38   +10 29.3    0.364    1.093    96.9    63.8    20.0
2004 02 25    04 28.72   +17 59.3    0.374    1.074    92.6    67.0    20.1
2004 03 06    04 51.83   +25 05.3    0.385    1.057    88.9    69.7    20.2
2004 03 16    05 19.72   +31 37.6    0.396    1.043    85.7    72.1    20.3
2004 03 26    05 52.82   +37 26.4    0.405    1.031    83.1    73.9    20.4
2004 04 05    06 31.49   +42 21.5    0.413    1.022    81.2    75.3    20.5
2004 04 15    07 15.77   +46 11.1    0.420    1.017    79.8    76.2    20.5
2004 04 25    08 05.24   +48 42.8    0.424    1.015    79.1    76.7    20.5
2004 05 05    08 58.33   +49 46.3    0.425    1.018    79.1    76.7    20.6
2004 05 15    09 52.41   +49 14.8    0.425    1.024    79.6    76.3    20.6
2004 05 25    10 44.89   +47 07.1    0.423    1.033    80.7    75.5    20.5
2004 06 04    11 33.82   +43 28.2    0.420    1.045    82.4    74.2    20.5
2004 06 14    12 18.36   +38 26.6    0.417    1.060    84.5    72.5    20.5
2004 06 24    12 58.86   +32 12.2    0.417    1.077    86.9    70.4    20.4
2004 07 04    13 36.06   +25 00.6    0.421    1.096    89.4    68.0    20.4
2004 07 14    14 10.81   +17 11.8    0.431    1.116    91.8    65.5    20.4
2004 07 24    14 44.07   +09 10.1    0.449    1.137    93.8    63.1    20.5
2004 08 03    15 16.54   +01 22.9    0.476    1.158    95.1    60.8    20.6
2004 08 13    15 48.74   -05 46.5    0.512    1.179    95.6    58.8    20.7
2004 08 23    16 21.12   -12 02.5    0.558    1.199    95.3    57.1    20.9
2004 09 02    16 53.88   -17 16.4    0.611    1.218    94.3    55.7    21.1
2004 09 12    17 27.04   -21 26.6    0.671    1.237    92.8    54.4    21.3
2004 09 22    18 00.58   -24 35.4    0.736    1.253    90.9    53.2    21.5
2004 10 02    18 34.30   -26 47.0    0.805    1.269    88.6    52.1    21.7
2004 10 12    19 07.91   -28 06.7    0.876    1.282    86.1    50.9    21.8
2004 10 22    19 41.22   -28 39.8    0.949    1.294    83.4    49.8    22.0

Timothy B. Spahr             (C) Copyright 2004 MPC           M.P.E.C. 2004-B14

Read MPEC 2004-B13 Read MPEC 2004-B15


Our Web policy. Index to the CBAT/MPC/ICQ pages.


Valid HTML 4.01!